RH
62 48 45 38 34 28 24 17 17 14 14 13 12 9 10 6 3 3 6 10 13 14 14 13 13 12 10 5 2 2 2 2 3 3 4 4 4 5 7 7 8 9 10
51 47 48 40 34 29 23 20 17 15 14 16 13 9 7 4 6 10 13 14 14 13 13 12 8 4 2 2 2 2 2 3 3 3 3 3 3 4 5 6 6 8 10
40 41 45 43 31 28 25 20 14 10 10 11 5 4 7 10 14 15 15 14 13 12 10 5 2 1 1 2 2 2 2 3 3 3 3 3 2 3 3 4 4 4 5
40 36 34 36 29 22 23 17 7 5 5 6 8 11 13 15 15 14 14 12 10 8 3 2 1 1 2 2 2 3 3 4 3 3 2 2 2 2 3 3 3 3 3
34 31 26 25 24 16 19 14 7 10 11 14 15 16 16 15 14 13 11 8 5 3 2 1 2 2 2 2 3 3 3 3 3 3 2 2 2 2 2 2 2 2 2
32 30 24 23 17 14 13 11 10 16 18 19 18 17 16 15 13 10 7 4 3 2 2 1 2 2 2 2 3 2 3 3 3 3 3 2 2 2 2 2 2 2 3
27 26 25 21 13 11 10 10 13 18 20 20 18 16 15 14 12 8 4 4 3 2 2 2 2 2 2 2 2 2 3 3 3 3 2 2 3 2 2 2 2 3 3
21 22 22 17 12 11 10 13 17 21 22 20 18 17 16 14 11 7 4 4 3 2 2 2 2 2 2 2 3 3 4 4 4 3 3 3 4 3 3 3 2 3 4
14 18 18 17 13 14 14 14 19 23 23 21 19 18 17 14 10 6 4 4 3 2 2 2 2 3 3 3 4 6 6 6 6 6 5 5 5 5 4 4 4 3 4
11 15 15 15 18 18 21 22 23 24 24 22 20 19 18 14 10 6 5 4 3 3 3 4 4 4 3 4 6 7 6 7 7 8 10 11 11 11 10 9 8 6 5
11 12 14 14 19 24 26 29 28 28 25 22 20 19 18 16 11 7 5 4 4 4 5 4 4 4 6 7 8 8 7 7 8 9 10 10 11 11 12 13 14 15 12
21 13 14 16 20 25 28 33 34 32 27 23 21 20 18 15 10 7 6 5 5 5 5 6 6 7 8 11 9 6 4 5 6 6 6 6 6 8 8 10 16 18 19
24 15 15 16 20 24 27 33 36 35 30 25 22 20 18 14 9 7 6 6 6 6 6 7 8 11 12 10 6 4 4 6 7 9 10 10 9 8 8 8 10 10 15
30 20 18 18 23 25 28 33 35 36 35 28 23 21 18 14 10 8 8 7 7 7 9 10 11 11 10 8 8 9 11 13 13 13 13 12 12 14 16 15 15 14 13
43 26 18 22 22 27 30 34 34 35 40 35 28 23 20 15 11 9 9 8 8 10 13 13 12 10 10 11 14 16 16 16 16 17 16 16 18 23 26 28 28 27 26
73 62 22 24 26 28 34 38 36 35 36 39 35 27 21 17 15 13 11 9 9 12 14 15 12 13 11 17 18 18 18 20 18 15 15 14 17 23 20 18 20 22 28
91 95 58 31 34 33 36 42 44 52 52 45 38 28 21 18 16 13 11 10 10 12 13 12 12 15 16 16 23 19 22 20 17 16 15 15 15 14 12 12 19 31 40
88 97 94 78 50 50 51 53 56 53 52 48 42 34 25 20 17 14 12 11 11 11 12 12 13 16 14 21 19 18 17 25 29 20 18 19 15 12 12 17 19 24 31
89 96 94 96 95 51 51 60 58 55 55 52 46 37 29 24 20 17 14 13 13 12 12 14 13 19 17 19 17 17 34 42 31 21 15 10 9 10 19 19 19 21 18
71 95 96 96 95 94 87 71 67 67 66 59 47 36 29 26 22 17 16 17 17 14 13 14 23 26 25 29 24 36 37 28 20 15 12 9 9 15 24 24 28 22 16
73 75 97 96 93 90 94 84 82 82 70 61 50 43 34 29 25 25 28 31 25 20 26 34 32 28 50 37 33 41 21 15 11 10 9 8 11 17 18 20 11 8 6
99 74 88 96 96 100 96 96 94 93 86 76 66 66 64 41 43 74 77 79 80 69 66 73 74 63 53 40 53 33 20 13 10 10 9 10 14 19 7 6 5 5 4
97 96 94 95 95 97 97 95 96 96 96 95 90 79 74 71 81 83 84 81 80 80 78 96 79 42 45 46 41 29 14 12 10 9 10 13 12 9 6 4 5 5 6
94 98 97 97 94 93 91 93 97 92 95 95 94 87 79 69 65 61 53 57 64 69 66 65 64 49 44 40 20 15 14 11 10 9 9 11 10 6 5 4 5 7 11
92 94 95 97 96 95 95 96 97 93 93 87 87 83 77 61 42 38 52 58 59 61 69 61 46 37 30 24 20 16 13 11 10 12 9 9 8 5 4 6 6 10 10
87 98 97 93 96 96 96 96 95 95 71 47 41 41 44 45 46 47 46 42 35 41 39 31 34 40 38 31 20 15 12 10 10 12 10 9 6 5 4 5 7 9 8
Wind_Speed
16 13 13 11 12 12 12 11 8 7 6 5 4 4 3 2 1 2 2 3 4 6 8 8 10 11 11 10 10 10 10 11 11 13 13 14 14 15 15 16 16 16 16
17 16 15 13 12 11 11 10 9 8 7 6 5 5 4 1 1 2 4 5 6 7 9 11 12 11 11 11 10 11 11 12 13 14 14 15 14 14 14 15 15 15 15
18 16 15 15 13 12 11 10 10 9 9 8 6 5 2 1 3 4 5 7 9 11 12 12 10 11 10 11 12 12 12 13 14 15 15 14 15 14 14 15 15 15 16
21 18 18 18 16 14 12 11 10 9 9 8 6 4 2 3 4 5 6 8 10 11 11 11 10 11 12 13 13 13 14 15 15 16 15 16 16 16 16 16 16 16 17
25 22 20 19 18 14 13 12 10 8 7 6 5 4 4 4 4 6 7 9 9 9 10 10 11 11 13 13 13 13 14 14 15 16 16 16 17 18 18 18 17 17 17
26 22 20 20 19 16 14 13 11 9 7 6 5 5 5 4 5 6 7 7 8 9 9 10 11 12 13 13 14 15 14 15 15 16 16 16 17 17 18 18 18 18 18
28 23 21 21 19 17 15 14 12 10 8 7 7 7 5 6 6 6 6 7 7 9 10 11 12 13 13 14 14 14 15 15 16 16 16 17 17 18 18 19 19 20 19
29 26 23 21 21 19 18 16 14 12 10 9 8 7 7 7 8 7 7 7 8 9 10 11 13 14 14 14 15 16 16 17 17 17 18 18 19 19 20 21 21 21 21
28 26 25 23 23 21 19 18 16 13 11 11 10 9 8 9 9 8 7 8 9 10 11 12 13 14 15 16 17 17 17 17 18 19 19 20 20 22 23 23 23 24 23
29 26 27 27 24 22 20 18 16 15 13 12 11 10 10 9 9 9 9 9 10 11 12 12 14 15 16 17 17 17 18 19 19 19 20 21 21 22 23 25 25 26 25
30 27 27 27 24 22 20 19 18 16 15 14 13 11 11 10 11 11 10 11 11 11 12 13 14 15 17 18 17 18 19 20 20 21 22 22 22 23 24 25 26 26 27
34 29 28 27 25 24 23 21 20 19 17 16 14 13 12 12 13 13 13 13 13 13 13 14 14 15 17 18 19 20 20 21 22 22 23 24 24 25 25 26 27 27 28
39 34 31 30 28 26 25 24 23 21 19 18 16 15 14 14 15 15 15 15 15 14 14 15 15 15 17 19 20 22 22 23 22 23 24 25 26 26 27 28 28 29 29
42 39 36 34 31 30 28 27 25 22 20 18 18 18 16 16 16 16 16 15 15 15 15 16 17 18 18 19 20 22 24 25 26 26 26 27 27 28 28 28 30 30 31
43 42 40 38 35 32 30 30 27 24 23 20 20 20 19 18 18 18 17 17 17 16 17 18 19 20 20 20 21 23 24 26 28 28 29 30 31 31 30 31 32 32 33
44 45 43 41 38 36 33 32 30 28 24 22 21 21 21 20 20 20 20 19 18 18 19 19 20 21 21 22 23 24 26 28 29 30 31 33 33 33 34 33 33 35 34
47 49 45 43 41 39 38 35 32 29 25 25 23 23 23 23 22 22 22 21 20 21 21 21 22 22 23 24 24 26 27 29 30 31 33 34 34 35 35 35 35 34 34
50 51 47 48 44 41 39 37 35 32 29 27 25 25 26 26 25 25 24 23 23 24 23 23 24 24 25 26 27 28 30 31 31 33 35 36 36 36 36 35 35 35 36
49 49 48 45 47 43 43 41 38 35 32 30 28 29 29 29 28 28 28 26 25 26 26 25 26 27 27 28 29 30 32 33 34 36 37 38 38 38 36 35 35 35 36
53 48 53 48 43 46 46 44 40 37 34 33 33 33 33 32 31 30 30 30 29 28 28 27 28 28 29 30 31 33 35 35 36 37 39 39 38 37 36 35 35 36 39
56 50 52 52 52 48 48 46 44 40 39 38 36 35 34 33 33 34 34 33 31 30 30 30 30 31 30 33 34 36 36 37 37 38 38 38 37 36 36 34 37 39 36
59 59 52 51 49 48 49 48 46 43 41 38 38 37 37 37 35 33 32 33 31 30 31 32 32 33 35 37 38 39 37 38 38 38 37 39 37 35 34 36 37 34 33
54 58 61 60 50 52 50 47 45 45 42 41 41 42 41 38 35 35 36 36 35 35 34 34 37 36 37 39 42 43 42 38 36 34 35 34 34 35 36 35 32 32 35
52 52 57 57 67 60 52 51 47 46 43 43 42 43 42 42 41 41 41 40 39 38 37 36 38 40 41 43 42 43 43 40 39 36 36 33 35 35 35 32 33 34 36
55 59 55 56 63 65 64 54 49 49 47 46 46 45 45 45 45 43 42 41 40 40 39 38 40 41 44 44 43 43 42 40 38 40 37 34 34 36 33 33 34 35 39
51 52 48 50 56 58 61 57 54 49 48 48 47 46 46 45 45 44 44 43 43 42 42 41 41 43 46 46 44 43 42 40 38 42 37 34 33 35 34 35 36 39 43
Wind_Direction
229 226 219 212 214 211 215 222 229 233 247 251 236 230 219 279 338 311 352 351 348 336 333 337 334 332 324 328 327 325 327 329 331 330 331 326 325 322 320 318 321 322 321
231 227 222 219 223 221 221 223 231 239 247 250 246 237 242 242 286 305 329 334 341 334 330 332 331 329 331 324 322 327 331 327 330 329 328 324 324 323 323 320 324 324 319
225 228 231 227 227 228 227 229 233 237 238 240 234 222 212 266 312 321 331 342 339 335 330 330 331 325 326 323 325 325 327 327 330 329 326 327 329 328 325 325 326 323 318
228 231 233 235 230 232 232 235 237 239 233 228 217 220 247 291 309 325 333 333 331 329 327 324 328 325 326 325 325 330 331 331 331 325 329 331 333 332 330 329 325 322 317
229 234 238 240 233 233 238 236 233 226 217 214 228 247 266 278 308 322 325 327 325 325 325 323 324 324 325 323 326 330 331 330 327 328 333 334 333 332 331 326 324 320 312
230 234 240 240 238 232 235 236 229 220 227 232 240 246 259 288 307 313 317 320 320 322 320 323 324 326 325 326 328 329 329 325 330 333 332 332 331 329 327 325 323 319 315
228 230 235 238 236 231 231 229 227 227 231 242 244 249 269 288 290 294 305 312 317 321 325 327 327 330 327 328 328 330 329 331 333 331 328 328 329 329 328 327 325 319 316
229 227 228 230 228 224 223 221 224 227 232 240 248 255 266 277 285 291 303 316 322 327 327 330 331 329 329 328 330 333 334 333 332 329 327 327 328 328 328 326 323 321 318
229 225 225 221 221 219 217 217 220 226 233 240 246 253 265 276 284 293 307 318 323 325 329 332 331 328 330 330 330 331 331 330 329 326 326 326 328 328 327 325 324 320 317
226 224 224 221 218 217 215 216 221 228 234 240 246 253 266 278 290 300 309 318 323 327 329 330 327 327 326 327 327 329 328 328 325 323 322 325 326 327 326 324 322 320 319
229 228 225 225 218 217 219 219 222 228 234 242 246 255 271 284 292 300 309 313 317 320 322 323 323 323 323 324 326 327 326 324 321 320 319 321 321 322 321 321 319 320 320
227 225 223 223 221 219 222 222 223 225 231 239 248 259 272 286 294 302 306 307 311 315 316 315 315 317 316 318 323 324 323 320 319 319 319 319 318 319 318 316 316 319 318
223 220 219 219 222 224 225 228 226 227 229 236 243 252 262 272 283 290 295 301 302 305 304 305 306 307 311 318 321 320 317 315 315 314 314 315 317 317 318 318 318 317 315
226 218 216 219 222 225 228 232 232 231 234 237 242 248 255 262 268 274 279 284 289 294 298 302 303 306 311 315 315 314 313 314 312 313 313 314 314 314 316 317 317 317 316
229 226 218 218 219 224 228 233 237 235 236 240 246 251 254 258 263 268 274 279 284 290 294 298 300 303 306 307 307 306 307 307 308 311 312 312 312 312 315 316 314 314 313
229 229 222 218 217 221 227 233 239 242 243 246 252 257 257 259 264 269 272 278 283 286 288 291 296 297 300 301 302 304 305 306 308 309 309 309 310 311 312 314 315 315 313
231 230 218 219 219 220 226 232 238 243 247 250 253 258 260 262 265 267 272 277 280 282 285 290 291 294 298 299 302 305 304 303 304 305 306 308 310 312 313 315 315 313 311
231 231 234 222 220 220 225 229 233 238 244 250 254 258 260 264 267 271 274 277 279 282 285 287 289 292 294 297 300 301 300 299 301 305 307 308 310 310 311 311 309 308 309
234 234 232 231 217 223 227 230 233 237 241 246 251 254 258 261 264 268 271 274 277 280 283 284 286 288 291 293 297 299 300 302 305 307 307 308 309 309 309 308 307 307 308
230 235 232 232 232 223 226 229 232 235 240 244 247 249 253 258 261 266 269 272 273 278 281 282 282 285 288 292 296 298 300 302 304 304 306 307 306 306 303 304 306 306 306
231 235 238 231 233 230 228 229 231 232 235 239 244 248 252 256 258 262 266 270 274 276 280 281 281 285 287 292 296 297 298 300 303 304 304 303 302 301 302 303 305 306 309
232 231 233 227 226 233 237 230 228 230 236 243 245 247 250 253 258 261 268 273 276 278 280 280 282 285 288 291 296 295 295 297 302 302 301 302 300 298 300 303 305 307 308
238 236 236 232 222 221 224 226 233 236 236 238 243 247 250 255 257 260 264 269 274 278 278 278 282 284 286 291 293 294 292 295 297 297 295 291 293 297 302 304 302 308 310
239 238 238 241 235 228 231 233 233 235 237 242 246 249 253 256 257 261 265 269 271 274 276 277 280 283 286 289 291 291 293 297 298 299 295 291 292 299 301 301 305 309 310
231 237 237 235 232 232 229 229 235 238 241 244 247 250 253 257 262 266 267 269 272 274 275 276 277 282 286 289 290 289 293 296 297 300 294 290 293 299 298 300 303 305 307
233 233 236 244 236 234 228 229 235 239 243 246 249 252 255 259 261 264 266 270 272 274 274 276 278 285 290 290 289 290 292 294 296 294 290 289 292 298 298 298 299 301 306